Weather in Mar del Plata

Argentina     37°59′42″S   57°34′15″W
temp.,
°C
wind,
m/s
gust,
m/s
humid.,
%
clouds,
%
prec.,
mm/h
press.,
hPa
HPBL,
m
14 april, wed
wed1400:00+17nnw46780 0.0 1019126
03:00+16nw57850 0.0 1018174
06:00+15nw57850 0.0 1018178
09:00+16nnw57800 0.0 1019223
12:00+19n68580 0.0 1018611
15:00+21n69590 0.0 1016609
18:00+20n48710 0.0 1015234
21:00+17n710780 0.0 1016359
15 april, thu
thu1500:00+16n712840 0.0 1016388
03:00+15nnw511850 0.0 1015297
06:00+14nnw59870 0.0 1015224
09:00+16nnw58850 0.0 1015238
12:00+20nnw56700 0.0 1015563
15:00+22nnw46640 0.0 1012398
18:00+21nnw45720 0.0 101382
21:00+19nnw47825 0.0 1014141
16 april, fri
fri1600:00+18nw57860 0.0 1014151
03:00+17nw46870 0.0 1014126
06:00+17w34850 0.0 1014113
09:00+18w34830 0.0 1015176
12:00+22w126812 0.0 1015282
15:00+22ese3365100 0.0 1014515
18:00+19ese33761 0.0 1015129
21:00+19ene22810 0.0 101654
17 april, sat
sat1700:00+18n348724 0.0 1016118
03:00+17nw338657 0.0 101790
06:00+17nw238355 0.0 101780
09:00+18nnw338086 0.0 1019125
12:00+21n3471100 0.0 1019315
15:00+21ne4471100 0.0 1018478
18:00+20ne5685100 0.0 1018146
21:00+19nne478718 0.0 1019173
18 april, sun
sun1800:00+18n58870 0.0 1019205
03:00+16nnw588731 0.0 1019203
06:00+16nnw468825 0.0 1019174
09:00+17n57860 0.0 1020229
12:00+21n58730 0.0 1019463
15:00+22n57675 0.0 1017448
18:00+21n4775100 0.0 1016155
21:00+19n71280100 0.0 1017306